Dewpoint
-10 -9 -7 -4 -2 -2 -1 -1 -1 -1 -0 -0 -0 -0 -0 -1 -2 -4 -6 -7 -8 -9 -9 -7 -5 -5 -6 -4 -5 -8 -7 -6 -6 -10 -13 -12 -4 -4 -7 -9 -11 -14 -16 -17 -13 -13 -17
-10 -7 -5 -3 -1 -1 -1 -1 -0 0 0 -1 -1 -1 -1 -2 -3 -5 -7 -8 -8 -8 -6 -5 -4 -5 -4 2 -3 -5 -7 -8 -6 -6 -6 -5 -5 -7 -8 -9 -13 -14 -16 -17 -15 -12 -12
-8 -5 -3 -1 -0 0 -1 -1 0 0 -1 -2 -1 -1 -1 -2 -4 -6 -7 -7 -7 -6 -4 -4 -4 -5 -4 -5 -4 -7 -8 -9 -8 -6 -6 -7 -8 -8 -9 -10 -14 -16 -13 -13 -12 -11 -11
-7 -4 -2 0 1 0 -0 -0 0 -0 -1 -2 -2 -1 -2 -3 -5 -6 -6 -6 -6 -4 -3 -3 -4 -5 -6 -3 -3 -7 -9 -9 -9 -7 -8 -9 -9 -9 -11 -13 -11 -11 -9 -7 -9 -9 -9
-6 -3 -1 1 1 0 -0 0 1 1 -0 -2 -3 -3 -3 -4 -5 -6 -6 -5 -4 -3 -2 -2 -4 -4 -8 -2 -7 -8 -9 -7 -8 -11 -11 -10 -8 -7 -10 -8 -8 -7 -7 -6 -6 -8 -8
-4 -2 1 1 1 -0 -0 0 1 1 -0 -2 -3 -4 -4 -5 -7 -6 -5 -4 -2 -1 -2 -3 2 1 -8 -4 -8 -8 -11 -7 -7 -7 -9 -8 -7 -5 -6 -6 -6 -6 -5 -5 -5 -7 -6
-3 -1 1 2 1 -0 0 0 1 1 0 -1 -3 -5 -5 -6 -6 -5 -3 -1 -0 0 -3 -11 -7 -1 -5 -10 -10 -9 -11 -7 -5 -6 -5 -4 -3 -4 -6 -7 -7 -7 -5 -4 -6 -7 -7
-2 1 1 2 1 0 -0 0 0 1 1 -0 -2 -5 -6 -5 -5 -3 -2 2 6 5 -5 -10 -4 -2 -5 -6 -8 -8 -8 -6 -6 -4 -5 -4 -4 -6 -6 -3 -3 -3 -2 -3 -5 -6 -8
-1 2 2 1 1 -0 -0 0 0 1 0 -1 -2 -5 -5 -5 -4 -3 1 4 5 2 2 -5 -4 -4 -5 -5 -6 -6 -5 -5 -6 -5 -3 -3 -5 -7 -2 -2 -1 1 -1 -2 -2 -4 -6
-0 2 2 1 1 -0 -0 -0 -0 0 0 0 -2 -4 -4 -5 -3 -2 -1 5 3 -1 -2 -6 -6 -7 -5 -5 -6 -6 -6 -5 -4 -3 -3 -4 -4 -2 -1 -1 -2 2 -1 -1 -2 -2 -4
1 2 2 1 1 -0 -1 -0 -0 -1 2 1 -1 -3 -4 -2 6 6 5 4 -1 0 2 -5 -4 -7 -5 -4 -5 -7 -6 -3 -5 -6 -3 -1 -1 -1 -1 -2 -3 1 -2 -2 -2 -0 0
2 1 2 1 1 0 -1 -1 -1 -1 1 1 1 -2 -1 1 6 4 3 -3 -3 7 1 -3 -4 -4 -6 -4 -4 -6 -5 -3 -3 -3 -3 -3 -2 -3 -2 -2 -3 -3 -0 2 1 2 5
2 1 1 1 1 0 -1 -1 -1 -1 0 -1 0 1 3 3 3 1 -4 -2 5 4 -2 -4 -3 -3 -3 -2 -2 -3 -1 -1 1 1 0 -0 -1 -2 -2 0 -1 -1 3 5 6 6 6
1 1 0 0 1 0 -1 -2 -1 -1 -1 -1 -1 1 3 3 3 0 -4 2 7 1 -2 -4 -3 -2 -2 -2 -0 -1 -0 0 -2 1 2 3 4 -1 -2 -2 -1 1 2 5 7 6 4
1 0 -1 -0 1 0 -1 -2 -2 -1 -2 -2 -1 -1 -1 -1 -0 -2 2 6 6 1 -3 -2 -1 0 -1 -2 -1 -0 -1 -1 -1 -1 2 3 2 -2 -3 -3 -1 1 1 -0 4 4 4
0 -1 -2 -1 1 0 -0 -1 -2 -2 -2 -2 -2 -2 -2 -3 -4 -4 6 7 4 -2 -1 -3 -0 -0 0 -1 -0 1 1 0 0 -1 -2 -0 1 -2 -4 -1 -1 -4 -3 3 3 3 4
-1 -2 -2 -2 1 1 1 -1 -3 -2 -2 -2 -2 -4 -4 -3 -5 -2 6 7 0 -2 -0 -0 0 -1 0 -0 0 2 2 1 1 -0 -2 1 0 0 0 -1 0 0 1 1 1 3 4
-2 -2 -3 -2 0 1 1 -1 -2 -3 -2 -2 2 3 3 2 -4 5 5 4 -2 -1 -1 -0 0 2 -0 1 4 5 4 3 2 2 -1 -0 1 2 1 -3 -3 -2 1 1 3 2 3
-2 -3 -3 -2 -0 1 1 0 -1 -2 -2 -1 3 6 5 -0 0 3 3 0 -1 -1 -1 -1 1 1 1 2 5 5 4 2 -1 1 2 -0 1 4 4 2 -0 -2 -2 3 2 1 2
-2 -3 -4 -3 -1 1 2 2 1 -3 -2 0 5 4 3 3 6 3 5 1 2 1 0 0 1 1 2 3 4 5 4 3 -3 -2 -1 2 2 1 4 2 -2 -3 -2 1 2 3 2
-2 -3 -4 -4 -2 0 2 3 2 -3 -2 3 6 3 -2 1 1 3 4 2 2 2 0 0 0 1 2 3 4 5 4 2 1 -1 0 1 3 2 0 0 -1 -1 -1 -1 -1 0 2
-2 -3 -5 -5 -3 -1 2 3 3 -2 -1 3 6 6 -1 -2 -4 3 4 3 3 2 1 1 1 1 2 3 3 5 3 2 1 0 2 3 3 1 1 2 3 1 1 1 -0 -1 -1
-2 -2 -4 -5 -5 -3 -0 3 3 -1 -1 2 4 5 -1 6 0 3 4 2 3 2 1 2 3 3 3 3 2 2 2 1 2 1 5 3 2 1 1 2 3 1 1 0 -1 -1 -1
-1 -2 -4 -5 -6 -4 -2 1 3 2 -2 3 5 5 3 3 4 3 3 1 3 2 3 3 2 2 2 1 0 1 0 1 2 3 2 2 3 0 -1 -2 -3 1 -1 -1 0 2 3
-1 -2 -3 -5 -6 -6 -4 -0 2 2 2 6 4 6 3 2 6 4 2 5 4 4 5 4 3 1 0 -4 -1 -1 0 0 1 4 5 2 0 2 -2 2 -3 0 0 0 -1 1 3
-1 -2 -3 -4 -6 -7 -6 -3 -0 1 2 -0 2 5 2 2 4 5 4 4 5 5 4 5 3 3 1 1 -1 2 1 -2 3 3 2 3 -0 -1 3 -2 -4 -4 0 -1 -1 3 3
-1 -1 -2 -3 -5 -7 -7 -6 -2 -1 -2 -2 1 4 2 4 5 4 3 4 4 4 5 5 4 4 3 -1 3 1 4 1 4 3 2 2 0 1 -2 -1 0 -1 -0 -1 2 0 4
-1 -1 -2 -3 -4 -6 -7 -7 -5 -2 -1 -2 -1 1 2 4 4 4 4 4 4 3 4 4 3 4 3 1 0 3 1 2 2 2 2 2 2 2 2 -0 2 -1 -0 1 -0 2 3
-1 -1 -2 -3 -3 -4 -6 -7 -6 -4 -1 1 -0 3 2 1 4 4 4 4 3 2 2 4 -0 4 3 3 2 4 2 3 2 3 1 1 0 2 2 2 -2 -1 -1 -2 -1 1 3
Wind_Speed
19 17 15 14 14 14 15 16 17 18 17 18 17 16 14 12 11 11 10 11 10 10 11 11 7 4 4 6 10 6 2 4 5 10 12 14 10 11 6 7 7 6 5 11 13 13 11
18 16 15 14 14 13 14 16 16 15 15 15 14 13 11 10 10 9 9 10 10 11 11 9 5 4 6 5 4 6 2 6 4 3 8 11 14 10 11 7 9 8 13 9 9 9 6
19 16 14 13 13 13 14 14 13 12 12 12 11 11 9 9 8 9 9 10 11 12 10 6 5 6 8 12 5 1 5 8 3 5 5 8 2 3 3 4 20 22 6 3 2 4 3
19 17 14 13 12 12 12 12 9 8 9 8 8 7 7 8 8 9 10 12 13 11 7 5 5 5 8 5 8 4 5 2 2 2 3 5 3 8 9 5 5 5 6 3 3 5 1
19 18 15 13 12 11 11 9 6 5 5 5 5 5 7 9 11 13 15 13 10 6 5 4 4 4 9 7 7 3 4 5 4 1 3 4 5 5 7 5 5 7 2 5 3 9 3
19 18 15 13 11 10 8 6 4 3 2 3 3 6 9 13 16 15 14 10 7 5 5 6 3 2 9 6 7 5 6 3 6 4 4 7 6 5 5 5 2 4 4 2 5 3 2
21 19 16 14 12 9 6 5 3 1 2 4 5 9 13 16 16 14 14 11 6 3 11 8 5 4 4 7 6 6 8 3 2 2 2 6 5 3 4 5 5 4 2 6 3 2 4
23 20 17 15 12 7 5 6 4 4 5 7 10 13 15 16 14 13 13 4 5 5 5 16 10 14 9 4 3 7 6 0 1 3 3 6 2 3 4 6 6 4 8 4 5 6 4
24 21 17 16 12 7 7 7 7 8 8 10 11 13 14 12 11 11 7 5 5 6 3 0 7 7 3 2 3 4 1 1 4 3 2 6 4 2 5 7 8 5 6 3 4 2 4
26 22 18 17 12 8 9 9 10 10 10 11 12 13 12 10 6 4 3 4 5 6 4 3 1 3 2 5 3 1 0 0 4 7 7 5 7 6 5 5 1 2 3 3 3 3 4
27 23 20 17 13 10 11 11 12 12 11 12 13 14 12 11 2 2 1 5 3 3 4 4 1 7 5 2 6 2 3 3 2 3 7 2 4 7 5 0 1 3 1 1 1 3 3
28 24 21 17 14 11 12 14 14 14 13 12 13 13 10 6 2 2 4 2 1 6 2 4 6 5 2 1 3 4 1 4 4 7 7 5 4 3 1 3 1 2 1 6 4 3 3
29 26 21 19 15 12 13 16 16 16 15 13 12 13 9 5 3 1 3 2 5 4 2 4 4 4 4 2 2 4 5 6 4 5 4 5 4 5 5 4 6 7 5 3 4 4 4
30 26 22 19 15 13 14 18 18 18 17 15 14 13 9 5 3 4 2 4 2 4 3 3 5 4 4 4 6 3 3 4 6 5 3 4 3 4 6 2 1 4 4 4 4 2 3
30 25 23 19 15 13 15 19 20 20 19 17 14 11 8 5 3 3 2 3 5 3 2 7 5 5 3 2 6 6 4 2 1 2 5 4 1 2 1 2 2 3 4 4 6 3 3
30 26 22 19 15 14 15 19 22 22 20 17 14 10 8 7 4 2 4 4 2 3 3 5 6 5 4 6 4 4 2 2 1 5 3 3 4 1 2 5 7 6 2 4 4 2 1
30 27 22 19 16 14 14 18 22 23 22 19 15 7 9 9 4 2 3 5 1 6 7 4 1 4 6 7 6 3 2 3 5 4 6 2 4 4 3 3 0 5 3 5 4 3 4
30 26 22 19 16 13 14 18 23 24 24 22 14 2 11 11 3 1 2 4 1 4 4 4 3 4 4 4 5 3 3 2 8 3 3 2 5 3 1 3 1 2 3 4 4 2 2
29 26 21 18 15 13 14 18 23 25 28 25 14 5 10 14 3 2 5 3 2 2 1 1 2 4 3 4 6 3 4 4 10 4 2 3 2 3 6 6 5 4 2 5 6 3 4
29 25 21 18 16 13 14 18 23 27 29 24 8 3 4 7 2 6 2 1 3 5 2 4 3 6 5 4 5 4 3 3 5 4 3 2 3 5 6 4 3 1 2 4 5 3 3
28 24 21 19 16 14 13 17 22 28 30 21 5 4 9 4 3 3 3 5 3 2 1 4 4 3 5 3 3 4 3 2 4 2 3 3 3 1 3 4 2 0 2 2 5 4 5
27 24 21 19 16 15 13 15 19 26 30 16 4 3 9 9 14 5 5 6 8 3 4 0 3 3 5 4 5 7 7 3 4 2 2 4 0 2 1 4 6 3 4 4 4 3 3
27 23 21 19 17 15 13 14 18 22 26 10 5 4 8 1 6 4 4 6 8 9 0 3 13 8 10 4 17 17 12 11 9 6 2 3 4 3 3 4 5 5 5 3 1 3 3
26 23 21 19 17 15 14 14 15 21 23 10 5 3 4 1 3 6 3 3 5 3 7 8 14 7 12 22 20 21 24 21 19 12 5 4 4 3 2 3 1 4 3 4 7 3 8
26 23 20 18 17 15 14 15 14 18 19 12 7 3 4 1 1 1 3 12 20 20 8 9 4 11 22 7 5 5 5 6 4 6 7 4 5 3 3 3 5 2 5 5 5 5 6
26 22 20 17 16 15 14 15 14 15 15 10 9 7 4 8 3 1 7 19 6 4 5 5 19 11 6 6 4 4 4 5 3 2 8 6 6 4 2 4 6 5 3 9 8 4 15
26 22 20 17 15 14 13 13 13 13 13 11 10 10 6 5 4 3 4 8 12 7 4 3 4 4 4 2 3 3 4 4 5 6 4 3 3 4 2 2 8 7 6 7 5 7 19
26 22 20 17 15 14 13 13 12 12 12 12 12 11 8 5 5 4 7 10 12 12 5 9 5 2 4 4 3 4 3 5 3 5 6 7 6 4 3 2 8 14 6 7 6 14 18
25 22 19 17 15 13 12 12 12 12 12 12 13 11 8 5 6 9 10 10 11 11 14 18 6 6 8 4 2 3 1 1 2 3 3 2 7 6 10 7 6 23 12 18 12 14 19
Wind_Direction
241 247 254 261 269 276 284 289 294 295 293 290 287 280 275 267 253 243 230 222 213 209 208 210 202 216 229 250 259 183 9 350 251 230 237 228 222 220 212 213 159 137 150 98 101 107 148
238 246 249 257 268 277 285 291 295 296 294 290 283 273 260 251 241 228 215 206 196 194 196 194 206 195 221 263 360 221 325 316 359 246 263 265 232 272 248 248 153 144 123 128 126 122 119
239 239 240 252 264 274 284 294 296 299 293 289 276 260 247 236 218 204 197 188 178 180 186 191 197 206 237 242 331 166 247 301 334 22 358 33 49 36 139 57 131 134 93 53 147 147 140
235 235 238 247 258 273 285 292 296 295 294 287 270 248 230 211 192 182 178 167 166 177 182 192 198 217 252 281 291 301 255 270 118 26 346 27 34 58 82 83 54 86 60 89 283 152 227
228 229 231 240 251 267 281 282 287 293 297 285 255 217 200 179 172 163 158 155 164 173 182 168 173 230 271 289 252 191 244 32 102 8 40 74 48 34 49 66 19 16 190 208 266 202 122
218 225 226 233 245 258 270 269 271 282 281 240 192 167 173 159 151 153 147 148 154 159 161 154 178 274 263 260 179 219 196 92 72 40 19 40 36 53 29 65 204 254 241 209 173 193 151
210 216 222 230 235 245 254 242 232 192 182 151 145 150 146 144 148 155 149 137 129 149 190 194 203 214 294 187 201 186 183 173 83 98 52 14 61 140 219 182 198 230 109 123 131 188 140
206 210 212 226 228 230 227 212 188 157 157 139 142 143 144 150 154 153 149 129 45 351 275 224 258 261 269 301 160 147 164 96 102 194 85 25 114 233 334 38 46 88 93 20 4 8 86
207 206 204 217 224 210 209 194 170 160 149 142 144 146 148 152 154 163 182 30 349 360 237 105 208 214 111 37 116 102 68 341 223 70 151 145 204 354 88 43 68 33 105 111 169 317 55
206 202 201 210 216 199 199 184 170 161 151 149 152 149 149 149 151 200 273 355 333 322 71 280 98 158 83 127 51 145 62 2 4 142 116 93 2 95 87 72 121 84 171 151 128 90 166
201 198 200 202 207 194 192 182 171 163 154 151 149 152 156 151 105 139 231 283 262 288 74 210 170 159 154 193 153 180 67 49 30 141 93 219 68 66 70 294 92 203 285 86 76 103 84
195 196 198 196 198 191 190 183 173 165 157 153 150 151 154 156 146 202 295 267 175 46 193 183 144 160 129 119 185 130 87 51 82 75 57 93 96 73 266 305 283 309 357 36 51 65 44
192 192 194 195 192 190 189 183 176 168 166 156 151 147 145 155 181 261 316 214 45 130 154 149 161 152 134 147 108 78 73 42 67 80 55 48 15 333 20 33 14 39 56 11 22 14 209
188 188 193 191 188 191 188 185 179 172 174 160 149 148 152 176 223 249 278 55 190 181 181 196 121 119 108 130 14 52 62 43 5 52 123 129 349 357 328 94 220 6 106 142 165 175 267
184 184 190 188 186 189 187 185 180 175 178 165 158 155 160 179 238 248 209 79 213 229 173 134 94 107 119 86 127 80 63 113 26 27 135 129 153 295 27 324 118 313 52 158 105 17 69
180 184 183 186 184 186 184 184 181 177 179 166 165 167 183 196 226 208 79 227 234 23 30 102 150 153 154 182 121 101 121 326 341 15 175 176 112 262 312 23 15 98 170 43 8 86 98
178 182 178 182 181 181 178 183 179 177 175 165 163 156 188 192 194 139 156 244 269 58 59 88 176 185 178 187 153 73 53 16 14 339 49 73 96 283 46 28 106 11 23 57 105 108 150
176 177 175 179 176 174 172 177 175 175 172 165 162 107 176 181 118 76 182 213 318 51 30 32 94 59 106 113 66 84 123 40 355 347 50 20 115 83 140 282 290 126 126 107 108 221 58
174 172 171 174 170 166 165 172 172 174 172 165 158 122 170 182 139 284 282 268 107 81 292 55 66 67 66 117 95 75 94 35 37 52 74 9 41 65 355 350 348 86 56 88 98 79 190
171 168 170 168 165 158 159 167 170 174 173 170 159 94 132 191 194 155 221 229 95 51 39 83 116 75 69 64 46 124 102 40 33 65 48 47 81 147 178 192 180 175 65 143 118 120 189
167 165 167 162 160 151 153 164 174 176 175 171 174 198 168 198 260 196 165 175 141 113 37 92 32 113 138 112 82 103 89 90 26 19 51 84 116 87 70 47 51 201 206 234 190 195 165
166 164 165 159 157 147 147 159 174 178 178 186 150 170 173 179 176 179 147 202 173 187 136 177 148 38 90 112 175 186 134 156 179 161 59 20 178 51 36 22 14 301 288 231 227 227 204
164 164 161 154 151 146 140 150 167 174 180 187 229 250 187 8 122 97 213 184 203 143 82 66 132 97 78 115 102 101 98 118 141 134 105 75 112 80 254 8 356 351 221 222 197 66 224
163 163 159 152 149 146 138 138 156 167 180 177 209 182 152 263 126 182 211 141 137 161 132 113 122 103 138 114 96 85 72 68 65 46 92 112 89 75 200 28 35 247 305 203 144 67 113
164 161 157 152 148 144 139 135 146 162 178 186 182 141 119 122 190 14 125 116 94 86 66 74 59 140 142 118 66 48 354 21 9 33 29 89 114 91 135 193 301 306 187 164 167 232 175
163 160 157 153 147 144 142 140 146 156 164 170 162 157 126 123 271 337 112 140 134 105 24 69 115 133 139 78 75 133 193 197 211 134 51 69 79 114 138 138 216 237 214 135 91 276 181
163 162 159 155 149 145 143 145 150 154 157 165 163 151 142 111 56 119 138 164 135 107 107 130 126 97 86 75 93 149 226 178 171 177 198 54 10 154 141 213 286 239 192 139 104 239 175
164 165 162 159 153 149 147 148 149 154 155 160 158 168 175 120 106 90 143 151 151 151 136 157 81 5 52 71 122 199 166 223 139 181 179 167 152 194 107 98 280 193 164 174 201 162 184
167 167 165 164 159 155 154 152 148 152 155 158 154 161 157 144 122 107 112 146 179 171 144 165 150 154 160 92 157 127 197 173 144 222 123 222 189 182 184 212 243 182 204 212 229 206 194
Height
1509 1510 1512 1513 1512 1510 1509 1508 1506 1505 1503 1501 1500 1499 1498 1498 1498 1498 1499 1501 1503 1505 1507 1508 1510 1511 1512 1512 1507 1505 1505 1505 1507 1508 1509 1512 1514 1514 1513 1509 1510 1512 1512 1512 1515 1516 1517
1503 1506 1507 1509 1510 1507 1506 1504 1503 1501 1499 1498 1497 1496 1496 1495 1496 1497 1499 1500 1502 1504 1506 1508 1509 1510 1511 1511 1505 1504 1505 1505 1505 1507 1507 1508 1508 1507 1506 1504 1508 1508 1509 1512 1515 1517 1518
1501 1502 1503 1506 1506 1505 1503 1501 1500 1498 1496 1495 1494 1494 1493 1494 1494 1496 1498 1500 1502 1504 1506 1508 1509 1510 1510 1506 1504 1504 1505 1505 1505 1505 1504 1503 1503 1503 1502 1502 1505 1507 1515 1514 1515 1515 1517
1497 1499 1500 1502 1502 1502 1500 1499 1496 1495 1494 1493 1492 1492 1492 1493 1494 1496 1498 1500 1502 1505 1506 1508 1509 1509 1506 1503 1503 1503 1504 1504 1504 1505 1503 1502 1503 1501 1501 1504 1506 1509 1516 1528 1517 1516 1517
1492 1496 1497 1499 1499 1498 1498 1496 1494 1493 1492 1492 1491 1490 1491 1492 1494 1495 1498 1501 1504 1505 1506 1508 1510 1510 1505 1502 1502 1502 1503 1503 1504 1503 1502 1503 1503 1503 1503 1513 1523 1522 1534 1531 1524 1517 1517
1487 1493 1494 1496 1495 1495 1495 1494 1492 1491 1491 1491 1490 1490 1491 1492 1494 1497 1500 1503 1505 1506 1507 1508 1509 1513 1504 1502 1502 1502 1503 1503 1503 1503 1504 1503 1505 1510 1514 1522 1540 1531 1531 1527 1526 1519 1519
1481 1487 1491 1493 1492 1493 1491 1492 1491 1490 1491 1490 1491 1491 1491 1493 1496 1499 1501 1504 1508 1510 1507 1504 1504 1503 1502 1502 1501 1502 1502 1503 1504 1505 1510 1509 1516 1525 1518 1516 1517 1519 1523 1526 1521 1518 1520
1477 1483 1486 1490 1489 1489 1489 1490 1489 1489 1491 1491 1492 1492 1493 1496 1499 1501 1503 1504 1506 1508 1506 1503 1503 1502 1501 1502 1502 1502 1504 1505 1505 1511 1511 1518 1523 1515 1514 1515 1517 1519 1524 1529 1523 1519 1524
1475 1478 1481 1484 1486 1485 1486 1488 1488 1489 1490 1491 1492 1493 1495 1498 1500 1502 1503 1504 1505 1505 1506 1503 1502 1502 1502 1502 1502 1503 1505 1506 1506 1510 1513 1523 1518 1513 1516 1521 1524 1529 1530 1529 1531 1525 1526
1472 1474 1476 1480 1483 1483 1484 1485 1486 1488 1490 1492 1493 1494 1496 1498 1503 1502 1503 1504 1505 1505 1514 1505 1502 1502 1503 1502 1504 1505 1506 1507 1506 1513 1513 1516 1515 1517 1521 1525 1525 1532 1525 1526 1528 1535 1545
1467 1470 1473 1476 1479 1480 1481 1483 1485 1487 1489 1491 1493 1495 1496 1500 1501 1502 1504 1504 1504 1504 1543 1504 1502 1503 1503 1504 1505 1505 1505 1505 1507 1508 1514 1524 1521 1524 1526 1524 1521 1527 1521 1523 1524 1533 1536
1460 1466 1470 1472 1475 1477 1478 1480 1483 1485 1488 1491 1492 1494 1497 1500 1501 1502 1503 1503 1504 1522 1531 1504 1500 1502 1503 1503 1504 1505 1506 1507 1508 1511 1514 1519 1519 1521 1522 1520 1520 1519 1522 1529 1531 1539 1562
1456 1461 1465 1469 1472 1474 1476 1478 1481 1484 1488 1490 1492 1494 1497 1499 1501 1502 1502 1503 1521 1535 1497 1504 1503 1501 1503 1505 1505 1506 1512 1516 1522 1529 1528 1524 1525 1522 1520 1523 1521 1523 1534 1563 1564 1571 1569
1451 1456 1462 1466 1468 1472 1473 1476 1479 1482 1487 1489 1492 1494 1497 1499 1501 1502 1502 1506 1517 1500 1499 1495 1498 1502 1507 1505 1510 1510 1514 1524 1519 1520 1532 1539 1547 1528 1523 1526 1529 1527 1535 1566 1560 1576 1567
1447 1452 1458 1462 1465 1468 1470 1473 1476 1480 1485 1488 1491 1494 1497 1499 1501 1501 1503 1522 1513 1499 1492 1496 1500 1509 1509 1505 1510 1514 1521 1525 1523 1522 1531 1538 1539 1527 1525 1524 1526 1530 1544 1536 1558 1569 1578
1443 1449 1454 1459 1463 1465 1467 1470 1474 1478 1483 1487 1490 1494 1497 1499 1501 1502 1505 1513 1499 1493 1491 1493 1506 1505 1513 1510 1512 1517 1522 1522 1522 1520 1519 1525 1540 1528 1525 1524 1524 1528 1530 1551 1562 1570 1567
1439 1446 1451 1457 1460 1462 1464 1467 1471 1476 1482 1485 1490 1494 1496 1498 1501 1502 1513 1507 1495 1494 1493 1496 1500 1503 1505 1511 1511 1518 1524 1524 1523 1522 1520 1522 1532 1538 1529 1535 1537 1538 1541 1544 1551 1569 1578
1437 1443 1449 1455 1458 1459 1461 1464 1468 1474 1479 1485 1488 1493 1494 1497 1502 1503 1506 1498 1494 1494 1495 1496 1497 1498 1501 1506 1516 1522 1526 1525 1523 1522 1525 1526 1537 1555 1539 1532 1530 1532 1538 1545 1572 1561 1579
1435 1441 1447 1453 1455 1457 1459 1463 1466 1471 1477 1482 1486 1490 1493 1496 1508 1510 1499 1496 1494 1496 1497 1497 1499 1499 1500 1507 1522 1522 1525 1525 1523 1524 1528 1528 1541 1565 1553 1544 1535 1537 1536 1543 1553 1566 1566
1432 1439 1446 1450 1453 1455 1457 1460 1464 1470 1475 1481 1485 1492 1493 1496 1496 1497 1499 1497 1498 1496 1497 1497 1499 1499 1503 1510 1513 1523 1526 1526 1525 1526 1527 1528 1537 1545 1558 1545 1542 1541 1540 1543 1550 1574 1565
1431 1439 1445 1448 1451 1453 1456 1458 1463 1468 1473 1479 1481 1483 1484 1497 1496 1495 1497 1496 1498 1500 1498 1498 1501 1502 1506 1515 1517 1525 1525 1527 1528 1528 1529 1531 1542 1540 1541 1543 1540 1542 1542 1543 1546 1549 1558
1430 1438 1443 1447 1450 1452 1455 1458 1462 1467 1472 1477 1479 1480 1483 1484 1488 1493 1495 1497 1498 1498 1499 1501 1503 1504 1506 1515 1516 1524 1523 1527 1529 1530 1531 1534 1549 1543 1544 1546 1548 1544 1542 1541 1542 1539 1540
1430 1437 1442 1446 1449 1452 1455 1458 1462 1466 1472 1475 1478 1478 1480 1485 1489 1494 1494 1494 1495 1496 1500 1500 1504 1510 1515 1517 1514 1517 1520 1522 1524 1530 1535 1540 1550 1559 1560 1556 1553 1561 1539 1536 1534 1537 1536
1430 1437 1441 1445 1448 1452 1455 1458 1462 1466 1471 1475 1475 1477 1478 1489 1487 1490 1488 1489 1492 1495 1499 1504 1504 1507 1516 1516 1518 1521 1523 1526 1527 1531 1532 1544 1554 1568 1570 1568 1574 1536 1531 1530 1534 1537 1537
1431 1436 1441 1445 1449 1452 1455 1458 1462 1466 1470 1474 1474 1476 1477 1489 1486 1486 1487 1494 1495 1498 1502 1504 1505 1507 1513 1516 1528 1536 1544 1539 1539 1538 1537 1537 1554 1570 1575 1570 1552 1532 1531 1532 1533 1538 1536
1431 1436 1441 1445 1449 1452 1456 1458 1462 1466 1470 1473 1474 1476 1478 1480 1487 1487 1489 1491 1498 1502 1507 1508 1511 1512 1514 1521 1535 1549 1552 1542 1545 1540 1541 1542 1546 1559 1571 1575 1572 1535 1527 1526 1528 1546 1531
1431 1436 1441 1446 1449 1453 1456 1459 1462 1465 1468 1471 1474 1477 1479 1481 1485 1485 1488 1491 1493 1499 1507 1510 1511 1514 1515 1531 1544 1553 1544 1534 1545 1547 1554 1556 1561 1566 1582 1580 1552 1528 1524 1527 1545 1538 1525
1431 1437 1442 1446 1450 1454 1457 1460 1463 1466 1468 1471 1474 1477 1480 1481 1485 1485 1487 1489 1492 1494 1504 1508 1514 1515 1520 1533 1541 1542 1550 1536 1537 1534 1540 1545 1556 1561 1565 1578 1554 1518 1524 1531 1521 1519 1521
1432 1438 1443 1447 1451 1455 1458 1461 1464 1466 1469 1472 1474 1477 1479 1481 1485 1487 1488 1489 1491 1493 1495 1503 1505 1507 1511 1524 1532 1533 1540 1537 1537 1539 1527 1532 1527 1536 1535 1530 1513 1513 1510 1512 1512 1514 1516